[[{"header":{"parameterUnit":"m.s-1","parameterCategory":1,"la1":30.2991,"la2":30.254,"lo1":-89.0895,"lo2":-89.0444,"dy":0.0017,"dx":0.0017,"nx":28,"ny":28,"refTime":"2025-04-12T03:00:00:Z","depth":0,"parameterNumber":2,"parameterNumberName":"U-component_of_WINDS"},"data":[0,0,0,0,0,0,0,0,0,0,0,0,0,0,0,0,0,0,0,0,0,0,0,0,0,0,0,0,0,0,0,0,0,0,0,0,0,0,0,0,0,0,0,0,0,0,0,0,0,0,0,0,0,0,0,0,0,0,0.9854,0.9855,0,0.9905,0.9905,0.9906,0.992,0.992,0.992,0.992,0.9973,0.9974,0.9976,0,0,0,0,0,0,0,0,0,0,0,0,0,0.9771,0.9772,0.9854,0.9855,0.9855,0.9905,0.9905,0.9906,0.9921,0.992,0.992,0.992,0.9972,0.9974,0.9976,0,0,0,0,0,0,0,0,0,0,0,0,0,0.9813,0.9773,0.9854,0.9868,0.987,0.9905,0.9906,0.9906,0.9921,0.992,0.992,0.9919,0.9972,0.9974,0.9977,1.0001,0,0,0.9984,0.9985,0,0,0,0,0,0,0,0,0.981,0.9816,0.9866,0.9868,0.987,0.9906,0.9896,0.9938,0.9921,0.9902,0.992,0.9919,0.9951,0.9955,0.9966,1.0003,1.0005,0.9984,0.9986,0.9987,0.9988,0,0,0,0,0,0,0,0.9808,0.9814,0.9874,0.9866,0.9869,0.9873,0.9878,0.9904,0.9928,0.9903,0.9904,0.991,0.9952,0.9963,0.9967,1.0006,0.9984,0.9987,0.9988,0.9989,1.0066,1.0067,0,0,0,0,0,0,0.9802,0.9811,0.9873,0.9876,0.9838,0.9875,0.9881,0.9895,0.9928,0.9932,0.991,0.9911,0.9959,0.9964,0.9969,0.9999,0.9987,0.9989,0.9991,1.0066,1.0066,1.0067,0,0,0,0,0,0,0.98,0.9807,0.9871,0.9844,0.9852,0.9877,0.9892,0.9896,0.9907,0.9933,0.9938,0.9917,0.9959,0.9965,0.9993,1.0001,0.9991,0.9993,1.0065,1.0066,1.0066,1.006,0,0,0,0,0,0,0.9798,0.9807,0.9816,0.9844,0.9854,0.9893,0.9893,0.9897,0.9911,0.9912,0.9941,0.9945,0.9959,0.9989,0.9995,1.0005,0.9995,1.0064,1.0065,1.0066,1.006,1.0061,1.0062,0,0,0,0,0,0.9795,0.9812,0.9816,0.9823,0.9865,0.9893,0.9899,0.9914,0.9912,0.9921,0.9938,0.9944,0.9999,0.9991,0.9999,1.0009,1.0064,1.0065,1.0066,1.0059,1.0061,1.0062,0,0,0,0,0,0,0.9785,0.9816,0.9821,0.9848,0.9868,0.9896,0.9908,0.9915,0.9936,0.9936,0.9954,0.9961,0.9987,1.0001,0.9991,1.0034,1.0032,1.0034,1.0024,1.0025,1.0026,1.0022,0.9997,0,0,0,0,0,0.9785,0.9805,0.9832,0.9853,0.9863,0.9884,0.9896,0.9906,0.9928,0.9937,0.9956,0.9977,0.9999,1.0013,1.0035,1.0062,1.0069,1.0073,1.0074,1.0074,1.0076,1.0092,1.0094,1.0071,1.0071,1.0071,0,0,0.9787,0.9807,0.9818,0.9851,0.9868,0.9889,0.9891,0.9912,0.9928,0.994,0.9967,0.9981,1.0006,1.0033,1.0047,1.0046,1.0084,1.0076,1.0076,1.0078,1.0094,1.0096,1.0098,1.0072,1.0071,1.0071,0,0,0.9802,0.9818,0.9838,0.9854,0.988,0.9893,0.9898,0.9925,0.9935,0.9962,0.9972,0.9991,1.0028,1.0046,1.0059,1.008,1.0087,1.0087,1.0092,1.0107,1.0109,1.011,1.0118,1.012,1.0089,1.0089,1.0089,0,0.9801,0.9832,0.9847,0.9868,0.9883,0.9894,0.9915,0.993,0.9961,0.9971,0.997,1.0017,1.0035,1.0066,1.0072,1.0082,1.0088,1.0084,1.0107,1.0109,1.0111,1.0118,1.0121,1.0089,1.0089,1.0089,1.0089,0,0.983,0.9851,0.9864,0.9893,0.9909,0.993,0.9949,0.9963,0.9972,0.9986,1.0013,1.0035,1.0061,1.0069,1.0078,1.0102,1.0101,1.0103,1.0101,1.0113,1.012,1.0123,1.0089,1.0089,1.0089,1.0089,0,0,0.9839,0.9877,0.9881,0.9895,0.9923,0.994,0.9961,0.9987,0.9999,1.002,1.0038,1.007,1.0072,1.0088,1.0098,1.0112,1.0127,1.0112,1.0113,1.0114,1.0155,1.0154,1.0157,1.0132,1.0132,1.0133,1.0153,0,0.9857,0.9895,0.9909,0.9941,0.996,0.9972,0.9991,1.001,1.0024,1.0043,1.0059,1.0081,1.0082,1.0092,1.0105,1.0122,1.0136,1.0121,1.0149,1.015,1.0143,1.0161,1.0159,1.0177,1.0156,1.0157,1.0157,0,0.9883,0.9904,0.9937,0.9963,0.9972,0.9988,1.0013,1.0031,1.0054,1.0063,1.008,1.009,1.0113,1.011,1.0142,1.0132,1.0144,1.0155,1.0156,1.0159,1.0154,1.0164,1.0184,1.0186,1.0162,1.0162,1.0161,0,0.9886,0.9923,0.9947,0.9958,0.999,1.0001,1.0014,1.0037,1.0051,1.0073,1.0082,1.0107,1.012,1.0139,1.0155,1.0151,1.0186,1.0184,1.0195,1.0194,1.0202,1.0201,1.0223,1.0209,1.0209,1.0209,1.0209,0,0.9905,0.9924,0.9949,0.9964,0.9987,1.0004,1.0026,1.004,1.006,1.0078,1.009,1.0107,1.0128,1.0148,1.0161,1.0186,1.0192,1.02,1.0203,1.0199,1.0198,1.0208,1.0207,1.021,1.021,1.021,1.021,0,0.9912,0.993,0.9957,0.9984,0.9992,1.0007,1.0031,1.0046,1.006,1.0083,1.009,1.0112,1.0137,1.0155,1.0186,1.0195,1.0222,1.0225,1.0214,1.0215,1.0225,1.0224,1.0254,1.0259,1.0242,1.0242,1.0243,0,0.9923,0.9938,0.9967,0.998,0.9993,1.0014,1.0029,1.0046,1.0061,1.0088,1.01,1.0125,1.0146,1.0184,1.0203,1.0228,1.0232,1.0241,1.0236,1.0231,1.0232,1.0231,1.0233,1.0241,1.0242,1.0242,1.0242,0,0.994,0.9948,0.9968,0.9992,1.0009,1.0028,1.0048,1.0058,1.0079,1.0095,1.012,1.0136,1.0168,1.0192,1.0218,1.0233,1.0241,1.0243,1.0247,1.0243,1.0236,1.024,1.0216,1.0242,1.0242,1.0242,1.0242,1.0242,0.995,0.9964,0.9986,1.0009,1.0025,1.0043,1.0059,1.0075,1.0096,1.0123,1.0132,1.0157,1.018,1.0216,1.0231,1.0252,1.0252,1.0257,1.0259,1.026,1.0259,1.0232,1.0256,1.0256,1.0256,1.0256,1.0256,0,0.9967,0.9982,1.0003,1.003,1.0048,1.0053,1.0075,1.009,1.0112,1.0132,1.0152,1.0181,1.0205,1.0226,1.0251,1.0264,1.0268,1.027,1.0269,1.0272,1.0258,1.0252,1.0266,1.0266,1.0266,1.0266,1.0266,1.0266,0.9979,1.0003,1.0013,1.0046,1.0061,1.0086,1.0098,1.0115,1.0132,1.0163,1.0182,1.0196,1.0217,1.0244,1.0266,1.0272,1.0281,1.0282,1.0288,1.0274,1.0273,1.0272,1.0267,1.0283,1.0283,1.0301,1.0301,1.0301]},{"header":{"parameterUnit":"m.s-1","parameterCategory":1,"la1":30.2991,"la2":30.254,"lo1":-89.0895,"lo2":-89.0444,"dy":0.0017,"dx":0.0017,"nx":28,"ny":28,"refTime":"2025-04-12T03:00:00:Z","depth":0,"parameterNumber":3,"parameterNumberName":"V-component_of_WINDS"},"data":[0,0,0,0,0,0,0,0,0,0,0,0,0,0,0,0,0,0,0,0,0,0,0,0,0,0,0,0,0,0,0,0,0,0,0,0,0,0,0,0,0,0,0,0,0,0,0,0,0,0,0,0,0,0,0,0,0,0,-4.9689,-4.969,0,-4.9861,-4.9863,-4.9865,-4.9857,-4.9854,-4.9852,-4.985,-5.0026,-5.0033,-5.004,0,0,0,0,0,0,0,0,0,0,0,0,0,-4.9352,-4.9358,-4.9688,-4.9691,-4.9693,-4.9861,-4.9863,-4.9866,-4.9857,-4.9854,-4.9851,-4.9848,-5.0024,-5.0032,-5.004,0,0,0,0,0,0,0,0,0,0,0,0,0,-4.9509,-4.936,-4.9688,-4.9709,-4.9712,-4.9861,-4.9863,-4.9866,-4.9858,-4.9854,-4.9851,-4.9847,-5.0021,-5.0031,-5.0042,-5.018,0,0,-5.0074,-5.0078,0,0,0,0,0,0,0,0,-4.95,-4.9521,-4.9704,-4.9708,-4.9712,-4.9834,-4.9809,-4.9972,-4.9859,-4.9803,-4.985,-4.9845,-4.9965,-4.998,-5.002,-5.0188,-5.0196,-5.0075,-5.0081,-5.0085,-5.0088,0,0,0,0,0,0,0,-4.9489,-4.9514,-4.9757,-4.9706,-4.9711,-4.971,-4.9728,-4.984,-4.9902,-4.9807,-4.9807,-4.9828,-4.9967,-5.001,-5.0024,-5.0199,-5.0074,-5.0084,-5.009,-5.0094,-5.0491,-5.0495,0,0,0,0,0,0,-4.9474,-4.9505,-4.9751,-4.9762,-4.9595,-4.9719,-4.9739,-4.9798,-4.9901,-4.9913,-4.9831,-4.9827,-4.9994,-5.0012,-5.0031,-5.0202,-5.0085,-5.0095,-5.0101,-5.0487,-5.0492,-5.0497,0,0,0,0,0,0,-4.9466,-4.9496,-4.9744,-4.9633,-4.9665,-4.9729,-4.9795,-4.9804,-4.9847,-4.9919,-4.993,-4.9864,-4.9992,-5.0016,-5.0144,-5.0207,-5.01,-5.0109,-5.0482,-5.0488,-5.0494,-5.0543,0,0,0,0,0,0,-4.9457,-4.9493,-4.9546,-4.9635,-4.9671,-4.9855,-4.9799,-4.981,-4.9866,-4.9862,-4.9953,-4.9965,-4.9991,-5.0128,-5.0154,-5.022,-5.0118,-5.0476,-5.0485,-5.0492,-5.0536,-5.0551,-5.0563,0,0,0,0,0,-4.9445,-4.9553,-4.9549,-4.9579,-4.9739,-4.9858,-4.9879,-4.9907,-4.9871,-4.9925,-4.9971,-4.9962,-5.0196,-5.0141,-5.017,-5.024,-5.0473,-5.0482,-5.0492,-5.053,-5.0548,-5.0562,0,0,0,0,0,0,-4.947,-4.9565,-4.9562,-4.9701,-4.9772,-4.9856,-4.9926,-4.9925,-5.0007,-5.0,-5.0031,-5.0052,-5.0181,-5.0223,-5.016,-5.0381,-5.033,-5.0345,-5.0349,-5.0366,-5.0379,-5.0367,-5.0126,0,0,0,0,0,-4.9492,-4.9581,-4.9659,-4.9774,-4.981,-4.9862,-4.9915,-4.9931,-5.0005,-5.0035,-5.009,-5.0162,-5.0253,-5.0311,-5.0398,-5.0542,-5.0562,-5.0604,-5.0617,-5.0628,-5.0642,-5.0723,-5.0743,-5.0528,-5.0528,-5.0528,0,0,-4.9538,-4.96,-4.9655,-4.9781,-4.9838,-4.993,-4.9887,-4.9986,-5.0055,-5.005,-5.0175,-5.0217,-5.03,-5.0437,-5.05,-5.0477,-5.0706,-5.064,-5.0648,-5.0657,-5.0735,-5.0755,-5.0773,-5.0534,-5.0533,-5.0532,0,0,-4.9669,-4.9725,-4.9829,-4.9886,-4.9972,-5.0006,-5.0031,-5.0117,-5.0145,-5.0271,-5.027,-5.0352,-5.0506,-5.0565,-5.0616,-5.0771,-5.0766,-5.0798,-5.0868,-5.0946,-5.0963,-5.0979,-5.1036,-5.1056,-5.0811,-5.0811,-5.0811,0,-4.9716,-4.9854,-4.9882,-4.9982,-5.0038,-5.0038,-5.0144,-5.0198,-5.0308,-5.0348,-5.0319,-5.0514,-5.0569,-5.0721,-5.0759,-5.0799,-5.083,-5.0789,-5.0959,-5.0974,-5.0989,-5.1044,-5.1065,-5.0815,-5.0814,-5.0814,-5.0814,0,-4.9908,-5.0005,-5.0078,-5.0185,-5.0249,-5.0352,-5.0395,-5.0457,-5.0467,-5.0504,-5.0633,-5.0699,-5.08,-5.0837,-5.0847,-5.0991,-5.0974,-5.0952,-5.0901,-5.1013,-5.1065,-5.1086,-5.082,-5.0819,-5.0818,-5.0817,0,0,-5.0061,-5.0183,-5.0209,-5.0259,-5.0354,-5.0429,-5.0532,-5.0631,-5.0684,-5.076,-5.0848,-5.0979,-5.0959,-5.1017,-5.1034,-5.1102,-5.1223,-5.1072,-5.1075,-5.11,-5.1388,-5.1405,-5.1429,-5.122,-5.1224,-5.1227,-5.1381,0,-5.0204,-5.0387,-5.0415,-5.0576,-5.0666,-5.0667,-5.0757,-5.0825,-5.0863,-5.0945,-5.0985,-5.1079,-5.1045,-5.108,-5.1148,-5.1194,-5.1282,-5.1183,-5.1303,-5.1307,-5.1284,-5.1456,-5.1475,-5.1617,-5.1402,-5.1405,-5.1408,0,-5.0396,-5.0478,-5.0648,-5.0732,-5.0771,-5.0851,-5.0945,-5.1023,-5.1101,-5.1124,-5.1188,-5.1197,-5.1304,-5.1248,-5.1396,-5.1329,-5.1379,-5.1409,-5.1416,-5.1429,-5.1365,-5.1477,-5.1663,-5.1686,-5.144,-5.1437,-5.1435,0,-5.0493,-5.0645,-5.0768,-5.0809,-5.091,-5.0967,-5.1012,-5.1086,-5.1144,-5.1226,-5.1265,-5.1357,-5.1409,-5.1481,-5.1515,-5.147,-5.1662,-5.1608,-5.1685,-5.1684,-5.1727,-5.1724,-5.1926,-5.1756,-5.1755,-5.1755,-5.1755,0,-5.0651,-5.0755,-5.0813,-5.0888,-5.1006,-5.1037,-5.1152,-5.1195,-5.1261,-5.1345,-5.1351,-5.143,-5.1469,-5.1554,-5.1581,-5.1702,-5.1724,-5.1746,-5.1752,-5.1747,-5.1745,-5.1782,-5.1774,-5.1761,-5.176,-5.1758,-5.1757,0,-5.078,-5.0822,-5.0956,-5.1041,-5.1065,-5.1148,-5.1221,-5.1294,-5.1331,-5.1437,-5.1464,-5.1522,-5.1622,-5.1663,-5.1785,-5.1804,-5.1943,-5.194,-5.1917,-5.1919,-5.1995,-5.1988,-5.223,-5.2264,-5.2069,-5.2071,-5.2072,0,-5.0879,-5.096,-5.1054,-5.1111,-5.1157,-5.1249,-5.1309,-5.1342,-5.1404,-5.15,-5.1562,-5.1662,-5.1745,-5.1905,-5.1958,-5.2052,-5.2053,-5.2132,-5.2068,-5.206,-5.2057,-5.2053,-5.2062,-5.2144,-5.2146,-5.2147,-5.2149,0,-5.1051,-5.1068,-5.1154,-5.1249,-5.132,-5.1396,-5.1469,-5.1515,-5.156,-5.163,-5.1733,-5.1797,-5.1923,-5.2023,-5.212,-5.2166,-5.2166,-5.2168,-5.2192,-5.2188,-5.2172,-5.2184,-5.1951,-5.2163,-5.2162,-5.2161,-5.216,-5.2159,-5.117,-5.1242,-5.132,-5.1416,-5.1475,-5.1544,-5.1618,-5.1664,-5.1751,-5.1857,-5.1871,-5.1982,-5.2058,-5.2189,-5.2239,-5.2327,-5.2307,-5.234,-5.2348,-5.2357,-5.2363,-5.2156,-5.2344,-5.2344,-5.2343,-5.2343,-5.2343,0,-5.1344,-5.1394,-5.1482,-5.1586,-5.1662,-5.1654,-5.1736,-5.18,-5.1897,-5.1969,-5.205,-5.2169,-5.2267,-5.2327,-5.2425,-5.2484,-5.2486,-5.2509,-5.2506,-5.2517,-5.2374,-5.2345,-5.2505,-5.2505,-5.2505,-5.2505,-5.2505,-5.2505,-5.1444,-5.1567,-5.1593,-5.1746,-5.1795,-5.1904,-5.1952,-5.2016,-5.2073,-5.2206,-5.2287,-5.2326,-5.2394,-5.2498,-5.2587,-5.2602,-5.2639,-5.2663,-5.2677,-5.2543,-5.2527,-5.2511,-5.2484,-5.267,-5.2671,-5.2813,-5.2815,-5.2816]}]]